Location: Columbia
(38.9520°N, 92.3340°W)
Time: 19:21:40
(UTC-05:00)

SJ-11-01 - Visible Passes

Search period start: 20 August 2014 00:00
Search period end: 30 August 2014 00:00
Orbit: 686 x 699 km, 98.0° (Epoch: 20 August)

Date Brightness Start Highest point End Pass type
(mag) Time Alt. Az. Time Alt. Az. Time Alt. Az.
20 Aug 4.5 20:58:17 11° SSE 21:02:38 54° ENE 21:07:16 10° N visible
20 Aug 6.9 22:37:58 10° SW 22:40:30 14° W 22:43:03 10° WNW visible
21 Aug 4.8 21:38:37 16° S 21:42:22 57° W 21:47:03 10° NNW visible
22 Aug 5.0 20:40:25 10° SE 20:44:42 36° ENE 20:49:01 10° N visible
22 Aug 6.4 22:18:57 11° SW 22:22:20 22° W 22:26:00 10° NW visible
23 Aug 4.3 21:20:36 17° SSE 21:24:20 88° WSW 21:29:06 10° NNW visible
24 Aug 5.5 20:23:04 10° ESE 20:26:50 24° ENE 20:30:36 10° NNE visible
24 Aug 5.8 22:00:57 16° SSW 22:04:12 33° W 22:08:29 10° NNW visible
25 Aug 4.4 21:02:36 16° SSE 21:06:21 60° ENE 21:11:02 10° N visible
25 Aug 7.0 22:42:09 10° WSW 22:44:17 13° W 22:46:25 10° WNW visible
26 Aug 5.0 21:42:57 19° S 21:46:07 51° W 21:50:45 10° NNW visible
27 Aug 4.9 20:44:36 13° SE 20:48:25 39° ENE 20:52:49 10° N visible
27 Aug 6.6 22:23:18 13° SW 22:26:06 20° W 22:29:34 10° NW visible
28 Aug 4.3 21:24:58 22° S 21:28:04 80° WSW 21:32:50 10° NNW visible
29 Aug 5.4 20:26:37 10° SE 20:30:32 26° ENE 20:34:26 10° NNE visible
29 Aug 5.9 22:05:19 18° SW 22:07:57 30° W 22:12:08 10° NW visible
